Weather History for KMCK - April, 2013

Change the Weather History Date:

Monday, April 29, 2013

  Actual Average Record
Temperature  
Mean Temperature 67 °F 54 °F  
Max Temperature 85 °F 69 °F 95 °F (1927)
Min Temperature 49 °F 40 °F 26 °F (1956)
Cooling Degree Days 2    
Growing Degree Days 17 (Base 50)    
Moisture  
Dew Point 39 °F    
Average Humidity 40    
Maximum Humidity 63    
Minimum Humidity 18    
Precipitation  
Precipitation 0.00 in 0.09 in 1.18 in (1991)
Month to date precipitation 1.57 2.21  
Year to date precipitation 3.41 4.70  
Sea Level Pressure  
Sea Level Pressure 29.65 in    
Wind  
Wind Speed 8 mph (SE)    
Max Wind Speed 16 mph    
Max Gust Speed 20 mph    
Visibility 10 miles    
Events      
T = Trace of Precipitation, MM = Missing Value Source: NWS Daily Summary

Daily Weather History Graph

Daily Weather History Graph

Search for Another Location

Airport or City:

Trip Planner

Search our weather history database for the weather conditions in past years. The results will help you decide how hot, cold, wet, or windy it might be!

Date:

Astronomy

Apr. 29, 2013 Rise Set
Actual Time 6:44 AM CDT 8:35 PM CDT
Civil Twilight 6:14 AM CDT 9:05 PM CDT
Nautical Twilight 5:39 AM CDT 9:40 PM CDT
Astronomical Twilight 5:01 AM CDT 10:19 PM CDT
Moon 12:06 AM CDT (4/29) 10:06 AM CDT (4/29)
Length of Visible Light 14h 50m
Length of Day
13h 51m
Waning Gibbous, 80% of the Moon is Illuminated
Apr 29
Waning Gibbous
May 2
Last Quarter
May 9
New
May 17
First Quarter
May 24
Full

Hourly Weather History & Observations

Time (CDT) Temp. Dew Point Humidity Pressure Visibility Wind Dir Wind Speed Gust Speed Precip Events Conditions
12:53 AM 57.9 °F 36.0 °F 44% 29.78 in 10.0 mi NNE 6.9 mph - N/A   Clear
1:53 AM 57.9 °F 37.0 °F 46% 29.79 in 10.0 mi North 4.6 mph - N/A   Clear
2:53 AM 54.0 °F 36.0 °F 51% 29.78 in 10.0 mi North 5.8 mph - N/A   Clear
3:53 AM 50.0 °F 37.0 °F 61% 29.79 in 10.0 mi NNW 11.5 mph - N/A   Clear
4:53 AM 51.1 °F 37.0 °F 59% 29.79 in 10.0 mi NNW 5.8 mph - N/A   Clear
5:53 AM 51.1 °F 37.0 °F 59% 29.77 in 10.0 mi North 9.2 mph - N/A   Clear
6:53 AM 50.0 °F 37.9 °F 63% 29.79 in 10.0 mi NNW 8.1 mph - N/A   Clear
7:53 AM 54.0 °F 39.9 °F 59% 29.78 in 10.0 mi Calm Calm - N/A   Clear
8:53 AM 57.0 °F 39.9 °F 53% 29.78 in 10.0 mi Calm Calm - N/A   Clear
9:53 AM 61.0 °F 39.0 °F 44% 29.75 in 10.0 mi NE 8.1 mph - N/A   Clear
10:53 AM 64.9 °F 39.9 °F 40% 29.74 in 10.0 mi East 6.9 mph - N/A   Clear
11:53 AM 69.1 °F 39.9 °F 35% 29.72 in 10.0 mi ESE 10.4 mph - N/A   Clear
12:53 PM 75.0 °F 39.9 °F 28% 29.69 in 10.0 mi South 10.4 mph - N/A   Clear
1:53 PM 80.1 °F 39.9 °F 24% 29.64 in 10.0 mi SSE 15.0 mph - N/A   Clear
2:53 PM 82.0 °F 39.0 °F 22% 29.61 in 10.0 mi SSE 12.7 mph 19.6 mph N/A   Clear
3:53 PM 82.9 °F 37.9 °F 20% 29.57 in 10.0 mi SSE 11.5 mph 18.4 mph N/A   Clear
4:53 PM 84.0 °F 36.0 °F 18% 29.53 in 10.0 mi South 16.1 mph - N/A   Clear
5:53 PM 82.0 °F 36.0 °F 19% 29.52 in 10.0 mi South 11.5 mph - N/A   Clear
6:53 PM 81.0 °F 37.9 °F 21% 29.50 in 10.0 mi South 11.5 mph - N/A   Clear
7:53 PM 78.1 °F 39.0 °F 25% 29.48 in 10.0 mi SSE 9.2 mph - N/A   Clear
8:53 PM 73.0 °F 41.0 °F 31% 29.48 in 10.0 mi SSE 11.5 mph - N/A   Clear
9:53 PM 69.1 °F 44.1 °F 40% 29.47 in 10.0 mi SSE 6.9 mph - N/A   Clear
10:53 PM 66.9 °F 44.1 °F 44% 29.47 in 10.0 mi Calm Calm - N/A   Clear
11:53 PM 64.9 °F 43.0 °F 45% 29.47 in 10.0 mi SSW 8.1 mph - N/A   Clear